Retour au catalogue

STARLINK-5338

ActifCommunicationsVLEO
NORAD 55286·PAYLOAD·🇺🇸 United States

Lancé Jan 19, 2023 depuis Vandenberg Space Force Base

Loading…

Prochains Passages (prochaines 24 heures)

TLE

FraisSource: CelesTrak SupGP

Époque: Sep 15, 2026, 01:50 UTC

1 55286C 23010T   26258.07687500 -.00018892  00000+0 -15823-2 0  2586
2 55286  69.9998 267.0032 0004010 265.5239 180.7537 14.98359932    10

Suivez STARLINK-5338 en temps réel avec AllMySat

Download on the App Store